{"data":{"norad_id":59386,"epoch":"2026-05-25T01:27:47.965248Z","epoch_age_seconds":63774,"freshness":"FRESH","line1":"1 59386U 24062N   26145.06097182  .00000602  00000+0  28934-4 0  9993","line2":"2 59386  53.1595 263.1034 0000982  71.3747 288.7362 15.34396205121297","mean_motion":15.34396205,"eccentricity":9.82e-5,"inclination_deg":53.1595,"raan_deg":263.1034,"arg_perigee_deg":71.3747,"mean_anomaly_deg":288.7362,"bstar":2.8934e-5,"rev_number":12129,"period_min":93.847990193641,"perigee_km":462.04274815087,"apogee_km":463.38629138935,"semimajor_km":6840.8515197701,"source":"CELESTRAK","updated_at":"2026-05-25T13:38:18.934439Z"}}